Hourly Data Report for November 14, 2005

TORONTO CITY
ONTARIO

43°40'00.000" N
79°24'00.000" W
112.50 m
6158355
71508
XTO

Download Data

Hourly Data (November 2005)
Hourly Data Report for November 14, 2005
TIME
LST
Temp Definition
°C
Dew Point Definition
°C
Rel Hum Definition
%
Precip. Amount Definition
mm

Wind Dir Definition
10's deg

Wind Spd Definition
km/h
Visibility Definition
km
Stn Press Definition
kPa
Hmdx Definition


Wind Chill Definition


Weather Definition


00:00 9.9 0.0 50   LegendMM LegendMM   100.13     LegendNANA
01:00 9.7 -0.3 50   LegendMM LegendMM   100.20     LegendNANA
02:00 8.6 -0.1 54   LegendMM LegendMM   100.36     LegendNANA
03:00 7.6 0.5 61   LegendMM LegendMM   100.50     LegendNANA
04:00 7.4 1.2 65   LegendMM LegendMM   100.62     LegendNANA
05:00 6.7 0.5 65   LegendMM LegendMM   100.81     LegendNANA
06:00 6.4 0.6 66   LegendMM LegendMM   100.96     LegendNANA
07:00 5.8 0.5 69   LegendMM LegendMM   101.06     LegendNANA
08:00 5.5 0.6 71   LegendMM LegendMM   101.20     LegendNANA
09:00 5.8 0.5 69   LegendMM LegendMM   101.28     LegendNANA
10:00 6.8 1.0 66   LegendMM LegendMM   101.37     LegendNANA
11:00 7.9 0.9 61   LegendMM LegendMM   101.44     LegendNANA
12:00 8.3 0.1 56   LegendMM LegendMM   101.41     LegendNANA
13:00 8.7 -0.3 53   LegendMM LegendMM   101.39     LegendNANA
14:00 8.0 0.8 60   LegendMM LegendMM   101.41     LegendNANA
15:00 8.0 1.8 65   LegendMM LegendMM   101.44     LegendNANA
16:00 7.8 0.9 62   LegendMM LegendMM   101.42     LegendNANA
17:00 7.7 1.1 63   LegendMM LegendMM   101.35     LegendNANA
18:00 7.6 1.0 63   LegendMM LegendMM   101.40     LegendNANA
19:00 7.1 1.7 68   LegendMM LegendMM   101.35     LegendNANA
20:00 7.1 1.4 67   LegendMM LegendMM   101.30     LegendNANA
21:00 7.1 0.7 64   LegendMM LegendMM   101.32     LegendNANA
22:00 6.4 2.5 76   LegendMM LegendMM   101.26     LegendNANA
23:00 6.4 2.1 74   LegendMM LegendMM   101.18     LegendNANA

Notes on Data Quality.

Legend

  • E = Estimated
  • M = Missing
  • NA = Not Available*
  • [empty] = Indicates an unobserved value
Date modified: